BAW801 BIKF-EGLL

Flight info

Callsign BAW801
Flight time N/A
Altitude 37000
Route PIXUM1A PIXUM DCT PETUX DCT PODAR DCT ORTAV/N0447F370 DCT ODPEX DCT AKOMU DCT VAMEB DCT NUGRA
Aircraft A20N/M-SDE2E3FGHIRWXY/LB1

Departure

Time 2026-05-07 16:37
Airport Keflavik International Airport (BIKF)

Arrival

Time N/A
Airport London Heathrow Airport (EGLL)
Time Latitude Longitude Altitude Speed Heading
2026-05-07 16:18 63.99280 -22.62305 140 ft 0 kts
2026-05-07 16:22 63.99279 -22.62305 140 ft 2 kts
2026-05-07 16:23 63.99254 -22.62305 140 ft 4 kts
2026-05-07 16:23 63.99227 -22.62305 140 ft 4 kts
2026-05-07 16:23 63.99201 -22.62305 140 ft 2 kts
2026-05-07 16:23 63.99181 -22.62310 140 ft 4 kts 43°
2026-05-07 16:24 63.99173 -22.62356 140 ft 4 kts 90°
2026-05-07 16:24 63.99172 -22.62393 140 ft 1 kts 90°
2026-05-07 16:26 63.99172 -22.62390 140 ft 2 kts 90°
2026-05-07 16:26 63.99172 -22.62290 140 ft 9 kts 90°
2026-05-07 16:26 63.99173 -22.62121 140 ft 12 kts 89°
2026-05-07 16:27 63.99173 -22.61916 140 ft 14 kts 90°
2026-05-07 16:27 63.99172 -22.61708 144 ft 12 kts 90°
2026-05-07 16:27 63.99172 -22.61526 148 ft 11 kts 90°
2026-05-07 16:27 63.99172 -22.61372 151 ft 9 kts 90°
2026-05-07 16:28 63.99172 -22.61239 154 ft 8 kts 90°
2026-05-07 16:28 63.99172 -22.61104 157 ft 10 kts 90°
2026-05-07 16:28 63.99149 -22.60960 160 ft 10 kts 149°
2026-05-07 16:28 63.99083 -22.60941 164 ft 10 kts 179°
2026-05-07 16:29 63.98993 -22.60942 167 ft 15 kts 180°
2026-05-07 16:29 63.98875 -22.60941 164 ft 19 kts 179°
2026-05-07 16:29 63.98721 -22.60944 162 ft 25 kts 180°
2026-05-07 16:29 63.98539 -22.60941 165 ft 27 kts 180°
2026-05-07 16:30 63.98343 -22.60942 165 ft 29 kts 181°
2026-05-07 16:30 63.98134 -22.60946 166 ft 31 kts 180°
2026-05-07 16:30 63.97929 -22.60940 169 ft 31 kts 179°
2026-05-07 16:30 63.97717 -22.60945 169 ft 28 kts 180°
2026-05-07 16:31 63.97544 -22.60941 166 ft 24 kts 180°
2026-05-07 16:31 63.97361 -22.60939 163 ft 28 kts 180°
2026-05-07 16:31 63.97151 -22.60943 155 ft 30 kts 180°
2026-05-07 16:31 63.96966 -22.60942 149 ft 26 kts 180°
2026-05-07 16:32 63.96770 -22.60944 141 ft 30 kts 180°
2026-05-07 16:32 63.96600 -22.60944 135 ft 18 kts 179°
2026-05-07 16:32 63.96499 -22.60938 135 ft 12 kts 167°
2026-05-07 16:32 63.96462 -22.60806 137 ft 7 kts 96°
2026-05-07 16:33 63.96462 -22.60769 139 ft 0 kts 92°
2026-05-07 16:34 63.96462 -22.60759 139 ft 3 kts 91°
2026-05-07 16:35 63.96462 -22.60701 141 ft 7 kts 88°
2026-05-07 16:35 63.96468 -22.60599 144 ft 7 kts 61°
2026-05-07 16:35 63.96516 -22.60547 146 ft 7 kts
2026-05-07 16:35 63.96548 -22.60543 147 ft 0 kts
2026-05-07 16:36 63.96584 -22.60541 148 ft 29 kts
2026-05-07 16:36 63.97061 -22.60538 161 ft 104 kts 360°
2026-05-07 16:37 63.97980 -22.60541 264 ft 153 kts
2026-05-07 16:37 63.99073 -22.60627 1083 ft 154 kts
2026-05-07 16:37 64.00123 -22.60625 2188 ft 147 kts
2026-05-07 16:37 64.01184 -22.60594 2793 ft 161 kts
2026-05-07 16:38 64.02360 -22.60556 3303 ft 180 kts
2026-05-07 16:38 64.03671 -22.60532 3832 ft 195 kts
2026-05-07 16:38 64.05006 -22.59901 4567 ft 199 kts 29°
2026-05-07 16:38 64.06016 -22.57735 5387 ft 204 kts 59°
2026-05-07 16:39 64.06364 -22.54657 6199 ft 211 kts 86°
2026-05-07 16:39 64.06350 -22.51191 6744 ft 228 kts 87°
2026-05-07 16:39 64.06327 -22.47409 7149 ft 249 kts 88°
2026-05-07 16:39 64.06029 -22.43398 7729 ft 266 kts 110°
2026-05-07 16:40 64.04938 -22.39983 8584 ft 278 kts 137°
2026-05-07 16:40 64.03279 -22.37586 9418 ft 286 kts 148°
2026-05-07 16:40 64.01516 -22.35404 10284 ft 290 kts 149°
2026-05-07 16:40 63.99697 -22.33181 10805 ft 307 kts 149°
2026-05-07 16:41 63.97747 -22.30773 11100 ft 330 kts 149°
2026-05-07 16:41 63.95687 -22.28209 11616 ft 341 kts 149°
2026-05-07 16:41 63.93599 -22.25601 12422 ft 345 kts 148°
2026-05-07 16:41 63.91483 -22.22955 13213 ft 349 kts 148°
2026-05-07 16:42 63.89349 -22.20287 13993 ft 353 kts 148°
2026-05-07 16:42 63.87184 -22.17582 14698 ft 356 kts 148°
2026-05-07 16:42 63.85007 -22.14864 15368 ft 360 kts 148°
2026-05-07 16:42 63.82800 -22.12112 16055 ft 364 kts 149°
2026-05-07 16:43 63.80638 -22.09128 16728 ft 365 kts 141°
2026-05-07 16:43 63.78647 -22.05510 17385 ft 368 kts 137°
2026-05-07 16:43 63.76676 -22.01770 18026 ft 372 kts 137°
2026-05-07 16:43 63.74686 -21.98011 18658 ft 375 kts 137°
2026-05-07 16:44 63.72669 -21.94226 19225 ft 378 kts 137°
2026-05-07 16:44 63.70637 -21.90426 19812 ft 381 kts 137°
2026-05-07 16:44 63.68585 -21.86602 20382 ft 385 kts 137°
2026-05-07 16:44 63.66511 -21.82744 20937 ft 388 kts 137°
2026-05-07 16:45 63.64418 -21.78862 21507 ft 391 kts 137°
2026-05-07 16:45 63.62313 -21.74961 22056 ft 394 kts 137°
2026-05-07 16:45 63.60184 -21.71027 22585 ft 397 kts 137°
2026-05-07 16:45 63.58077 -21.66993 23141 ft 399 kts 133°
2026-05-07 16:46 63.56188 -21.62422 23688 ft 399 kts 126°
2026-05-07 16:46 63.54588 -21.57348 24123 ft 399 kts 118°
2026-05-07 16:46 63.53178 -21.51953 24536 ft 402 kts 117°
2026-05-07 16:46 63.51756 -21.46521 24968 ft 406 kts 117°
2026-05-07 16:47 63.50317 -21.41072 25397 ft 408 kts 117°
2026-05-07 16:47 63.48859 -21.35588 25790 ft 412 kts 118°
2026-05-07 16:47 63.47386 -21.30072 26185 ft 415 kts 118°
2026-05-07 16:47 63.45914 -21.24581 26570 ft 418 kts 118°
2026-05-07 16:48 63.44414 -21.18998 26959 ft 421 kts 118°
2026-05-07 16:48 63.42900 -21.13375 27321 ft 424 kts 118°
2026-05-07 16:48 63.41373 -21.07721 27681 ft 427 kts 118°
2026-05-07 16:48 63.39832 -21.02026 28023 ft 430 kts 118°
2026-05-07 16:49 63.38280 -20.96309 28372 ft 432 kts 118°
2026-05-07 16:49 63.36712 -20.90544 28684 ft 436 kts 118°
2026-05-07 16:49 63.35023 -20.84899 28997 ft 440 kts 124°
2026-05-07 16:49 63.33151 -20.79479 29303 ft 443 kts 125°
2026-05-07 16:50 63.31270 -20.74025 29613 ft 446 kts 125°
2026-05-07 16:50 63.29376 -20.68531 29903 ft 449 kts 125°
2026-05-07 16:50 63.27472 -20.63016 30207 ft 451 kts 125°
2026-05-07 16:50 63.25554 -20.57474 30455 ft 454 kts 125°
2026-05-07 16:51 63.23627 -20.51921 30707 ft 456 kts 125°
2026-05-07 16:51 63.21681 -20.46325 30941 ft 459 kts 126°
2026-05-07 16:51 63.19725 -20.40717 31175 ft 461 kts 126°
2026-05-07 16:51 63.17757 -20.35091 31482 ft 463 kts 126°
2026-05-07 16:52 63.15783 -20.29460 31798 ft 463 kts 126°
2026-05-07 16:52 63.13804 -20.23829 32108 ft 464 kts 126°
2026-05-07 16:52 63.11822 -20.18202 32417 ft 464 kts 126°
2026-05-07 16:52 63.09836 -20.12578 32709 ft 465 kts 126°
2026-05-07 16:53 63.07841 -20.06943 32994 ft 466 kts 127°
2026-05-07 16:53 63.05840 -20.01307 33252 ft 467 kts 127°
2026-05-07 16:53 63.03861 -19.95747 33492 ft 468 kts 127°
2026-05-07 16:53 63.01821 -19.90028 33728 ft 470 kts 127°
2026-05-07 16:54 62.99824 -19.84446 33954 ft 471 kts 127°
2026-05-07 16:54 62.97768 -19.78712 34156 ft 473 kts 127°
2026-05-07 16:54 62.95752 -19.73105 34358 ft 473 kts 127°
2026-05-07 16:54 62.93706 -19.67425 34557 ft 474 kts 127°
2026-05-07 16:55 62.91660 -19.61759 34762 ft 474 kts 127°
2026-05-07 16:55 62.89607 -19.56091 34975 ft 474 kts 127°
2026-05-07 16:55 62.87552 -19.50433 35167 ft 475 kts 128°
2026-05-07 16:55 62.85492 -19.44774 35352 ft 475 kts 128°
2026-05-07 16:56 62.83424 -19.39106 35505 ft 477 kts 128°
2026-05-07 16:56 62.81351 -19.33440 35676 ft 477 kts 128°
2026-05-07 16:56 62.77204 -19.22145 36076 ft 477 kts 128°
2026-05-07 16:57 62.75124 -19.16502 36250 ft 477 kts 128°
2026-05-07 16:57 62.73111 -19.10771 36404 ft 477 kts 123°
2026-05-07 16:57 62.71375 -19.04615 36582 ft 476 kts 120°
2026-05-07 16:57 62.69692 -18.98391 36715 ft 477 kts 120°
2026-05-07 16:58 62.68008 -18.92167 36849 ft 478 kts 120°
2026-05-07 16:58 62.66319 -18.85945 37010 ft 478 kts 120°
2026-05-07 16:58 62.64621 -18.79726 37134 ft 478 kts 120°
2026-05-07 16:58 62.62921 -18.73527 37135 ft 478 kts 120°
2026-05-07 16:59 62.59508 -18.61162 37128 ft 478 kts 120°
2026-05-07 16:59 62.56077 -18.48812 37127 ft 477 kts 121°
2026-05-07 17:00 62.52645 -18.36521 37124 ft 477 kts 121°
2026-05-07 17:00 62.49187 -18.24207 37114 ft 478 kts 121°
2026-05-07 17:01 62.46305 -18.13992 37112 ft 479 kts 121°
2026-05-07 17:01 62.42241 -17.99670 37104 ft 479 kts 121°
2026-05-07 17:02 62.38774 -17.87518 37100 ft 478 kts 121°
2026-05-07 17:02 62.35261 -17.75276 37092 ft 481 kts 122°
2026-05-07 17:03 62.31737 -17.63060 37089 ft 480 kts 122°
2026-05-07 17:03 62.28810 -17.52963 37078 ft 477 kts 122°